Home   Weather   Dayton   Past weeks

Flag for USA Past Weather in Dayton, Ohio, USA — Yesterday and Last 2 Weeks

Now
77 °F

Partly sunny.


Feels Like: 77 °F
Forecast: 76 / 89 °F
Wind: 3 mph from East

Location: Dayton / Wright-Patterson Air Force Base

Current Time: Jul 21, 2017 at 9:04:45 pm

Latest Report: Jul 21, 2017 at 7:58 pm


Visibility: 10 mi

Pressure: 29.96 "Hg

Humidity: 94%

Dew Point: 75 °F

Location of DaytonLocation

Past Weather in Dayton — Graph

°F

Dayton Temperature Yesterday

Maximum temperature yesterday: 86 °F (at 12:58 pm)
Minimum temperature yesterday: 70 °F (at 1:58 am)
Average temperature yesterday: 79 °F

High & Low Weather Summary for the Past Weeks

 TemperatureHumidityPressure
High89 °F (Jul 12, 4:58 pm)100% (Jul 6, 10:58 pm)30.14 "Hg (Jul 6, 10:58 pm)
Low54 °F (Jul 9, 6:58 am)35% (Jul 9, 12:58 pm)29.83 "Hg (Jul 7, 7:58 pm)
Average75 °F81%30.01 "Hg
* Reported Jul 6 7:08 pm — Jul 21 7:58 pm, Dayton. Weather by CustomWeather, © 2017

Note: Actual official high and low records may vary slightly from our data, if they occured in-between our weather recording intervals... More about our weather records

Advertising

Dayton Weather History for the Previous 24 Hours

Scroll right to see more
 ConditionsComfort  
Time TempWeatherWind HumidityBarometerVisibility
7:58 pm
Fri, Jul 21
77 °FPartly sunny.3 mph94%29.96 "Hg10 mi
7:10 pm77 °FLight rain. Fog.8 mph94%29.98 "Hg5 mi
6:42 pm82 °FLight rain. Mostly cloudy.13 mph74%29.98 "Hg7 mi
5:58 pm85 °FPartly sunny.5 mph65%29.96 "Hg10 mi
4:58 pm85 °FScattered clouds.5 mph66%29.98 "Hg10 mi
3:58 pm82 °FScattered clouds.6 mph70%30.00 "Hg10 mi
2:58 pm80 °FPartly sunny.8 mph74%30.01 "Hg10 mi
1:58 pm77 °FPartly sunny.7 mph82%30.02 "Hg10 mi
1:28 pm75 °FMostly cloudy.12 mph89%30.02 "Hg10 mi
12:58 pm76 °FMostly cloudy.15 mph91%30.02 "Hg10 mi
12:25 pm75 °FMostly cloudy.8 mph100%30.00 "Hg10 mi
11:58 am74 °FLight rain. Cloudy.8 mph98%29.99 "Hg10 mi
10:58 am73 °FMostly cloudy.6 mph100%29.98 "Hg10 mi
9:58 am71 °FLight rain. Overcast.No wind100%30.00 "Hg9 mi
8:58 am72 °FThundershowers. Mostly cloudy.12 mph96%30.04 "Hg7 mi
8:41 am72 °FThundershowers. Low clouds.12 mph100%30.04 "Hg7 mi
8:17 am72 °FThunderstorms. Fog.16 mph100%30.04 "Hg6 mi
7:58 am72 °FStrong thunderstorms. Fog.18 mph100%30.02 "Hg1 mi
7:44 am77 °FStrong thunderstorms. Fog.31 mph79%30.01 "Hg1 mi
6:58 am77 °FMostly cloudy.6 mph95%29.96 "Hg10 mi
6:48 am77 °FWarm.5 mph94%29.96 "Hg10 mi
6:15 am79 °FPartly cloudy.9 mph89%29.96 "Hg10 mi
5:58 am78 °FPassing clouds.9 mph91%29.96 "Hg10 mi
4:58 am79 °FPartly cloudy.9 mph89%29.96 "Hg10 mi
3:58 am79 °FMostly cloudy.9 mph90%29.96 "Hg10 mi
2:58 am79 °FPassing clouds.7 mph91%29.97 "Hg10 mi
1:58 am79 °FPartly cloudy.8 mph90%29.98 "Hg10 mi
12:58 am78 °FPartly cloudy.7 mph96%29.98 "Hg10 mi
11:58 pm
Thu, Jul 20
78 °FPassing clouds.3 mph100%29.98 "Hg10 mi
10:58 pm78 °FPassing clouds.5 mph100%29.99 "Hg10 mi
9:58 pm81 °FPassing clouds.3 mph91%29.99 "Hg10 mi
Weather by CustomWeather, © 2017

See weather overviewHow to use our weather pages